RH
59 50 34 26 20 20 35 44 47 46 70 67 56 57 76 98 88 73 60 53 49 51 47 54 53 49 38 52 67 70 64 58 52 55 48 43 43 45 41 28 26 23 21
49 39 27 28 33 25 31 40 44 57 61 78 67 57 59 86 85 80 68 62 56 46 31 39 36 29 26 46 62 58 52 51 51 53 47 44 43 45 29 26 25 21 18
61 49 36 31 38 29 30 34 36 42 54 59 70 66 63 66 76 89 79 77 70 60 50 24 21 24 32 41 52 56 57 54 52 52 40 40 38 34 29 27 25 20 17
52 41 38 25 31 34 26 40 41 40 69 84 83 82 84 72 64 77 88 85 79 72 53 38 29 32 35 44 49 50 57 62 56 40 36 28 33 30 28 25 23 18 18
60 42 26 29 30 30 28 35 42 58 52 71 87 88 98 95 78 69 87 85 87 67 45 41 44 47 48 50 58 54 48 50 58 42 30 28 29 28 27 29 22 18 18
56 52 27 30 34 32 27 25 40 49 58 65 92 94 98 94 88 87 93 96 97 78 48 43 49 48 56 58 53 47 46 41 39 31 26 28 28 29 27 26 24 20 18
81 52 29 29 39 35 30 32 33 48 60 64 87 98 97 97 98 97 96 95 95 95 73 48 41 46 48 55 56 50 44 42 35 29 25 26 26 26 26 23 22 18 18
86 72 44 52 45 45 42 37 31 50 59 63 85 98 97 96 97 94 95 95 97 94 91 74 50 37 41 50 54 56 57 57 54 42 30 25 24 24 23 22 20 17 17
79 80 56 45 42 48 42 38 34 39 52 60 78 90 96 94 93 97 100 97 99 98 96 91 72 48 44 40 41 58 60 60 52 44 36 26 21 21 21 21 20 15 15
75 78 68 61 52 56 48 42 45 55 61 59 68 76 79 70 83 93 96 96 97 95 92 41 34 45 56 43 30 36 47 56 57 52 37 26 25 23 23 23 20 16 14
82 86 82 76 78 72 62 48 62 78 78 80 76 70 69 69 95 90 59 73 79 56 38 29 27 45 54 50 28 28 29 33 34 32 29 28 28 26 27 25 21 19 16
75 78 96 98 96 82 66 54 58 73 80 79 75 70 70 72 82 97 54 66 52 61 72 38 25 36 43 44 25 23 23 24 26 29 28 32 31 28 26 24 23 20 18
46 47 60 75 86 100 81 64 70 66 72 80 80 75 69 70 68 69 73 74 77 71 90 94 55 32 33 30 25 24 27 28 30 30 30 30 27 25 26 26 24 23 22
54 58 60 66 73 78 94 94 76 64 70 82 71 61 67 66 63 68 74 88 94 86 71 83 97 97 90 62 48 37 35 30 32 46 46 34 34 33 38 38 33 27 26
58 65 83 77 86 87 77 92 95 92 68 56 54 53 53 56 65 63 70 81 89 92 94 93 97 97 97 97 97 97 96 86 81 66 67 68 69 55 58 67 72 82 84
61 68 83 75 75 70 61 67 73 89 86 62 59 59 58 61 59 60 61 64 69 73 86 98 99 97 96 91 99 98 98 96 98 97 97 89 91 92 99 100 98 100 99
52 81 85 80 71 68 74 73 67 71 82 75 63 61 71 68 59 56 59 62 72 76 99 100 100 94 94 96 100 100 99 99 100 99 99 96 97 100 98 96 98 98 98
58 61 80 82 94 90 75 61 55 47 50 57 73 78 79 78 78 84 82 76 78 84 85 85 89 99 100 99 100 100 99 97 93 94 95 100 100 94 92 91 84 84 83
53 65 66 63 67 68 70 65 68 75 71 79 84 90 100 100 98 99 98 96 91 81 78 72 73 73 74 74 78 85 86 89 89 92 90 87 88 88 86 85 85 85 77
42 52 60 64 71 70 70 74 78 77 82 85 84 82 82 86 91 99 99 99 98 99 93 82 82 80 83 82 92 100 100 100 97 93 91 88 91 91 91 87 79 75 61
33 33 39 52 58 59 65 74 70 72 74 79 84 97 100 100 100 99 100 95 96 97 98 99 98 97 96 90 93 92 94 94 95 98 96 91 90 89 83 71 52 40 44
29 36 37 40 45 48 53 56 71 74 75 77 80 90 98 98 95 98 100 100 100 100 100 100 100 100 99 99 97 98 98 95 92 90 82 73 62 54 48 52 58 63 64
52 33 34 43 46 50 54 59 62 61 62 62 61 61 62 64 65 68 72 76 80 87 91 92 94 94 93 88 83 78 78 77 76 76 71 72 73 76 76 75 72 71 73
99 100 82 52 40 40 51 65 73 74 78 79 74 67 68 70 71 72 73 73 74 75 75 75 76 76 78 81 83 80 79 81 85 86 92 96 96 93 91 91 95 93 80
100 100 98 97 95 62 44 50 61 74 85 87 87 84 81 78 77 77 76 75 76 74 73 72 71 71 77 85 90 94 97 100 100 99 100 100 100 98 99 100 96 84 81
97 98 100 100 100 100 99 89 67 43 52 66 74 79 84 86 86 86 87 91 96 98 99 100 100 100 100 100 100 100 100 100 100 100 100 100 100 100 100 97 79 44 25
Wind_Speed
42 37 34 31 28 27 26 24 23 26 27 25 26 26 27 27 25 23 22 21 23 23 23 23 24 23 23 21 21 21 22 22 22 22 22 22 22 21 20 21 20 21 23
48 43 37 32 28 25 24 23 24 24 26 27 27 26 28 28 27 26 25 25 26 23 24 23 24 24 23 22 24 24 23 24 25 24 24 24 24 22 21 22 23 24 26
45 43 34 30 27 23 24 25 25 24 25 27 28 29 27 26 25 23 25 28 27 25 25 24 25 25 25 24 24 24 25 26 27 26 25 26 24 23 23 24 26 27 28
46 44 39 33 28 28 29 26 24 24 24 25 27 27 28 27 29 29 31 29 27 27 27 26 26 26 27 27 26 25 26 27 28 27 28 25 25 26 25 26 28 29 30
47 41 36 34 32 31 28 28 26 25 26 25 24 25 29 30 28 32 29 27 28 28 28 28 29 29 29 29 28 28 28 29 30 30 29 28 28 27 27 28 30 30 31
43 41 39 37 33 32 31 30 27 25 25 28 28 21 28 30 28 30 30 29 30 30 30 32 32 32 32 32 31 31 30 31 31 31 31 31 30 31 30 29 31 32 34
44 41 38 37 34 32 30 28 28 26 26 27 25 23 24 30 29 33 34 36 32 31 32 32 32 33 35 35 34 33 33 34 33 33 33 33 33 34 33 33 33 33 33
38 38 37 32 31 30 31 31 30 27 26 27 27 27 25 26 29 29 38 39 35 37 36 31 31 34 35 38 39 39 37 37 37 37 36 35 37 37 36 36 37 36 35
33 36 37 36 33 33 33 31 30 30 28 29 31 30 31 30 29 28 32 44 37 36 31 30 33 35 35 35 38 42 43 41 39 39 38 37 38 39 40 40 40 41 38
29 37 40 38 36 37 37 36 33 31 30 31 32 33 32 30 28 28 26 29 36 37 29 30 33 36 35 35 36 36 39 41 41 40 40 40 40 41 43 43 43 43 44
22 29 38 39 37 38 39 37 36 31 28 27 30 33 32 30 30 28 29 29 28 28 30 32 34 35 36 37 37 36 37 38 39 40 41 42 42 43 44 46 46 46 47
28 30 32 33 39 39 41 39 38 36 31 28 27 25 28 32 32 30 29 29 28 30 31 32 32 34 36 37 38 38 39 40 40 41 43 43 44 44 46 47 48 49 50
40 38 39 40 36 38 43 41 38 36 35 35 33 32 30 28 28 29 32 34 34 33 34 35 33 34 35 37 38 39 40 41 42 43 44 46 47 47 48 50 50 51 51
47 42 40 40 40 42 36 42 39 38 38 38 36 36 35 33 33 33 33 32 34 36 38 39 39 39 39 40 41 42 42 42 44 45 46 49 51 52 52 50 52 52 52
44 47 47 46 43 40 38 37 37 39 42 42 41 41 41 41 40 40 40 39 39 38 38 39 42 42 43 42 44 44 45 47 49 49 46 50 51 54 58 57 59 62 62
41 43 52 52 48 49 51 46 42 45 45 45 44 45 46 46 45 45 45 44 42 42 42 44 45 44 45 46 41 46 48 49 45 53 54 59 59 54 58 53 58 57 56
43 44 50 52 52 49 45 42 43 47 48 50 52 52 52 53 53 51 50 48 48 45 43 47 49 48 47 46 47 50 49 55 53 52 52 53 54 54 55 57 56 57 59
46 47 54 54 53 54 54 55 55 55 56 58 58 58 58 56 55 54 53 53 51 50 49 49 50 50 50 52 50 52 52 52 54 53 52 55 59 61 61 62 63 64 65
50 48 50 50 55 59 59 58 55 55 55 54 55 56 54 55 57 59 59 58 56 53 54 54 54 55 55 55 56 57 58 59 60 60 62 64 65 66 66 67 67 68 70
53 51 51 52 51 53 53 54 58 60 62 62 60 60 62 61 60 61 61 58 56 57 58 60 61 62 62 62 62 63 64 65 67 67 68 68 69 70 70 70 72 74 75
53 55 53 51 52 52 53 54 55 58 62 64 64 64 64 64 63 63 62 61 61 62 64 65 65 65 66 66 67 69 70 70 71 72 73 72 72 72 74 77 78 76 77
51 53 55 56 56 56 56 56 57 59 61 63 65 64 65 65 64 64 65 65 65 66 67 68 69 70 71 71 71 71 72 73 74 74 76 77 78 78 78 77 76 76 77
52 53 53 54 56 56 57 59 60 61 61 60 61 62 64 66 66 67 67 67 66 67 68 68 69 70 71 71 72 72 72 73 74 75 75 76 77 77 77 77 77 76 76
50 53 53 54 57 57 56 57 59 60 62 63 64 65 66 67 67 68 68 69 69 70 71 71 71 71 71 72 72 73 74 74 75 76 76 76 76 76 77 77 77 78 78
52 55 55 55 56 57 58 60 60 59 59 60 62 63 64 65 65 67 68 69 70 71 72 72 73 73 73 72 73 74 75 75 76 75 75 76 76 77 77 78 77 77 79
44 47 51 54 56 57 58 59 61 61 63 64 64 64 63 63 63 64 64 64 65 66 68 69 69 70 71 71 72 73 74 73 73 72 72 73 74 76 75 76 76 73 71
Wind_Direction
204 208 208 209 214 218 219 217 217 217 218 223 224 227 223 221 222 223 225 230 232 236 238 234 237 235 236 226 230 239 236 236 241 248 252 256 263 267 270 274 279 284 290
204 205 209 210 212 215 215 219 221 221 221 224 228 230 229 225 227 227 229 230 233 231 240 240 239 237 232 228 230 234 238 241 245 252 254 257 263 267 269 274 280 285 290
204 202 208 215 213 216 218 220 221 221 224 226 230 234 236 235 236 232 232 233 233 232 236 239 234 233 233 231 235 239 242 245 247 250 253 255 262 262 268 276 284 291 294
205 209 213 215 214 217 220 221 224 223 224 227 230 234 232 230 226 224 227 229 231 234 237 237 237 237 239 238 240 243 245 248 249 252 255 258 253 260 268 277 283 289 293
210 212 212 212 214 221 223 222 224 224 226 228 230 233 229 231 231 229 228 230 230 234 235 236 237 239 241 243 244 246 248 250 251 253 259 253 255 261 267 276 284 289 293
211 211 211 212 215 221 224 225 226 230 227 227 230 248 217 222 227 235 236 233 233 234 235 236 238 240 241 242 245 248 249 250 252 256 257 255 257 261 269 275 281 288 293
213 216 217 217 218 221 226 229 230 231 233 230 227 233 241 224 235 242 240 237 235 235 238 242 245 246 247 248 248 248 247 249 254 260 260 259 260 264 270 276 280 283 288
220 217 217 214 219 225 227 229 232 233 235 232 228 238 244 241 241 241 232 232 234 243 242 240 249 251 249 249 248 249 250 254 257 260 261 260 261 265 271 277 280 283 286
218 218 222 226 225 227 230 232 234 235 238 235 232 233 238 238 239 229 252 234 237 239 241 242 247 251 252 253 252 250 251 251 254 258 261 263 263 266 272 277 281 284 283
224 220 219 221 222 226 228 229 231 233 234 238 237 237 239 246 247 246 249 243 239 238 240 250 253 253 254 257 256 254 254 253 254 259 263 264 265 269 274 279 282 284 286
231 234 231 225 223 225 230 228 228 231 234 238 241 242 242 244 243 245 251 251 251 253 254 253 252 251 254 256 257 257 258 258 258 261 264 266 267 270 276 279 282 285 286
235 233 237 234 226 229 232 232 230 230 230 229 233 237 240 243 245 244 252 253 255 255 256 257 256 256 255 254 256 257 260 262 262 264 265 267 269 272 275 279 282 284 284
237 237 231 239 235 231 232 233 233 236 236 237 240 243 243 243 246 248 251 252 253 255 258 257 257 257 255 255 255 257 259 261 262 265 266 268 271 273 275 278 278 279 281
238 237 228 227 233 232 233 227 229 236 237 237 242 245 246 247 248 249 249 249 251 253 255 258 260 257 254 254 256 257 258 260 261 263 266 268 270 272 273 275 277 278 280
240 231 222 221 219 222 227 231 234 233 239 241 243 246 247 248 248 249 250 251 252 255 258 260 261 261 259 259 259 259 260 262 261 262 265 269 272 276 276 275 279 276 276
241 232 227 227 225 235 243 234 232 235 236 239 240 242 244 245 248 251 252 253 253 254 255 258 260 262 264 265 259 266 264 262 278 266 269 270 273 273 280 287 281 278 279
234 235 228 224 224 224 224 226 235 239 240 239 241 242 243 246 247 249 252 253 254 253 251 254 260 260 260 263 268 271 268 270 270 271 271 274 277 279 280 285 290 288 288
231 230 228 224 227 236 240 241 242 243 245 243 243 243 246 249 250 249 251 253 254 255 255 256 259 261 263 264 267 269 272 274 275 278 283 283 282 284 286 286 287 287 288
238 235 235 236 235 239 241 243 243 243 242 242 243 245 247 249 251 252 252 251 252 255 258 260 262 264 265 266 267 268 270 273 274 275 276 278 280 281 282 285 286 289 291
247 244 245 241 243 242 242 243 241 240 242 245 247 250 253 255 256 255 255 259 260 260 259 260 261 263 264 265 267 269 270 272 274 276 279 281 283 284 285 287 288 289 290
246 248 246 247 246 247 247 243 242 244 245 246 249 251 252 255 256 258 259 260 260 261 261 261 263 266 268 270 271 272 275 277 279 280 282 283 284 285 285 286 287 287 288
245 245 248 249 249 248 247 246 245 245 247 248 249 251 254 255 258 260 260 261 263 264 266 267 268 268 269 271 272 272 274 276 277 278 280 281 281 281 282 283 284 285 285
250 248 245 246 248 250 251 250 249 248 248 249 250 251 253 255 257 259 261 262 263 263 264 265 266 267 269 270 271 272 273 273 275 276 277 279 280 281 282 283 284 285 286
251 250 250 249 249 249 249 250 251 252 252 253 253 253 253 254 254 255 256 257 259 261 262 264 265 267 268 269 271 272 274 275 276 277 278 279 280 281 282 283 284 285 285
253 253 255 255 250 249 251 251 252 252 253 254 255 255 255 256 257 257 258 259 260 261 263 265 266 267 269 271 272 273 274 276 277 279 280 281 282 282 282 283 284 285 285
254 253 253 253 254 254 253 252 251 253 254 255 256 256 257 258 259 260 261 263 264 265 267 268 269 270 271 271 272 273 275 277 279 279 279 279 279 280 281 283 284 284 284